| time (UTC) | temp C | wind direction | speed KPH | gust KPH | rain 1hr cm | rain 24hr cm | rain mn cm | humidity % | barometer mb |
| 20260506195743 | 6 | 360 | 16.1 | 27.4 | 0.00 | 0.00 | 0.00 | 13 | 1025.1 |
| 20260506192744 | 6 | 315 | 16.1 | 32.2 | 0.00 | 0.00 | 0.00 | 13 | 1025.3 |
| 20260506185746 | 6 | 360 | 19.3 | 29.0 | 0.00 | 0.00 | 0.00 | 13 | 1025.0 |
| 20260506182741 | 7 | 360 | 17.7 | 30.6 | 0.00 | 0.00 | 0.00 | 13 | 1024.8 |
| 20260506175744 | 7 | 360 | 19.3 | 35.4 | 0.00 | 0.00 | 0.00 | 13 | 1024.6 |
| 20260506172745 | 7 | 292 | 24.1 | 32.2 | 0.00 | 0.00 | 0.00 | 13 | 1024.5 |
| 20260506165743 | 7 | 315 | 19.3 | 37.0 | 0.00 | 0.00 | 0.00 | 13 | 1024.5 |
| 20260506162748 | 8 | 360 | 24.1 | 30.6 | 0.00 | 0.00 | 0.00 | 13 | 1024.4 |
| 20260506155746 | 8 | 270 | 19.3 | 32.2 | 0.00 | 0.00 | 0.00 | 13 | 1024.5 |
| 20260506152744 | 9 | 360 | 16.1 | 35.4 | 0.00 | 0.00 | 0.00 | 13 | 1024.5 |
| 20260506145743 | 8 | 360 | 17.7 | 30.6 | 0.00 | 0.00 | 0.00 | 13 | 1024.8 |
| 20260506142743 | 8 | 360 | 16.1 | 24.1 | 0.00 | 0.00 | 0.00 | 13 | 1024.9 |
| 20260506135745 | 9 | 360 | 12.9 | 22.5 | 0.00 | 0.00 | 0.00 | 13 | 1024.8 |
| 20260506132746 | 10 | 270 | 9.7 | 19.3 | 0.00 | 0.00 | 0.00 | 13 | 1024.9 |
| 20260506125745 | 8 | 360 | 14.5 | 19.3 | 0.00 | 0.00 | 0.00 | 13 | 1025.0 |
| 20260506112746 | 8 | 360 | 9.7 | 16.1 | 0.00 | 0.00 | 0.00 | 13 | 1025.0 |
| 20260506105743 | 8 | 360 | 6.4 | 14.5 | 0.00 | 0.00 | 0.00 | 13 | 1025.0 |
| 20260506102744 | 6 | 270 | 14.5 | 27.4 | 0.00 | 0.00 | 0.00 | 13 | 1025.0 |
| 20260506095744 | 9 | 360 | 8.0 | 14.5 | 0.00 | 0.00 | 0.00 | 13 | 1025.0 |
| 20260506092744 | 9 | 360 | 4.8 | 9.7 | 0.00 | 0.00 | 0.00 | 13 | 1025.0 |
| 20260506085743 | 9 | 360 | 3.2 | 8.0 | 0.00 | 0.00 | 0.00 | 13 | 1025.0 |
| 20260506072743 | 11 | 90 | 1.6 | 6.4 | 0.00 | 0.00 | 0.00 | 13 | 1024.8 |
| 20260506042744 | 5 | 45 | 0.0 | 3.2 | 0.00 | 0.00 | 0.00 | 81 | 1024.5 |
| 20260506035745 | 3 | 45 | 0.0 | 6.4 | 0.00 | 0.00 | 0.00 | 69 | 1024.0 |
| 20260506032746 | 3 | 90 | 4.8 | 9.7 | 0.00 | 0.00 | 0.00 | 53 | 1024.4 |
| 20260506025746 | 3 | 90 | 3.2 | 9.7 | 0.00 | 0.00 | 0.00 | 45 | 1024.3 |
| 20260506022745 | 3 | 45 | 1.6 | 9.7 | 0.00 | 0.00 | 0.00 | 49 | 1024.3 |
| 20260506012749 | 4 | 360 | 6.4 | 11.3 | 0.00 | 0.00 | 0.00 | 51 | 1024.5 |
| 20260506005747 | 4 | 360 | 6.4 | 11.3 | 0.00 | 0.00 | 0.00 | 52 | 1024.5 |
| 20260506002744 | 4 | 45 | 8.0 | 14.5 | 0.00 | 0.00 | 0.00 | 53 | 1024.5 |
| 20260505235743 | 5 | 360 | 6.4 | 12.9 | 0.00 | 0.00 | 0.00 | 51 | 1024.6 |
| 20260505232742 | 5 | 360 | 8.0 | 16.1 | 0.00 | 0.00 | 0.00 | 42 | 1024.4 |
| 20260505222743 | 5 | 360 | 9.7 | 14.5 | 0.00 | 0.00 | 0.00 | 35 | 1024.4 |
| 20260505215743 | 5 | 45 | 9.7 | 17.7 | 0.00 | 0.00 | 0.00 | 31 | 1024.5 |
| 20260505212742 | 5 | 360 | 11.3 | 19.3 | 0.00 | 0.00 | 0.00 | 26 | 1024.4 |
| 20260505205746 | 5 | 360 | 9.7 | 19.3 | 0.00 | 0.00 | 0.00 | 18 | 1024.4 |
| 20260505202750 | 5 | 360 | 12.9 | 22.5 | 0.00 | 0.00 | 0.00 | 21 | 1024.5 |